Weather in Williston

United States     48°09′15″N   103°37′32″W
temp.,
°C
wind,
m/s
gust,
m/s
humid.,
%
clouds,
%
prec.,
mm/h
press.,
hPa
HPBL,
m
23 may, mon
mon2301:00+6s335457 0.0 102239
04:00+5sse3956100 0.0 1022181
07:00+6ssw3560100 0.0 1021137
10:00+11s5649100 0.0 1019498
13:00+15ssw334141 0.0 10171579
16:00+17ssw233391 0.0 10152298
19:00+18ese02295 0.0 10132393
22:00+11se510695 0.0 1015223
24 may, tue
tue2401:00+9sse39775 0.0 1016212
04:00+8s23825 0.0 101644
07:00+8s22775 0.0 101626
10:00+15sse33533 0.0 1015429
13:00+19sse32335 0.0 10152190
16:00+20se33285 0.0 10142726
19:00+19ese433099 0.0 10132319
22:00+14se41054100 0.0 1013213
25 may, wed
wed2501:00+12se3106598 0.0 1013202
04:00+10sse411755 0.0 1012247
07:00+10sse41178100 0.0 1011311
10:00+15ssw476085 0.1 1010579
13:00+15s246981 1.0 1009366
16:00+19ssw564898 0.7 10072128
19:00+18ne2253100 0.9 1006654
22:00+13se337592 0.0 100739
26 may, thu
thu2601:00+12ssw337625 0.0 100747
04:00+12wnw46681 0.0 100876
07:00+12wnw35690 0.0 100983
10:00+18nw57495 0.0 1010741
13:00+21nw56405 0.0 10112032
16:00+23nw463324 0.0 10102488
19:00+22n4435100 0.0 10101356
22:00+17e34515 0.0 101047
27 may, fri
fri2701:00+14ese366429 0.0 1011109
04:00+13ese356718 0.0 101184
07:00+12ese4117120 0.0 1010238
10:00+18se81456100 0.0 1007585
13:00+23se91144100 0.0 10051383
16:00+25s61045100 0.1 10021897
19:00+22sse5860100 0.5 1001537
22:00+18nw476782 0.0 1002118